Location: Br�ttisellen
(47.4227°N, 8.6287°E)
Time: 02:02:43
(UTC+00:00)

SAR-Lupe-2 - Pass Details

Date: 09 April 2020
Orbit: 481 x 485 km, 98.1° (Epoch: 27 May)

Event Time Altitude Azimuth Distance (km) Brightness Sun altitude
Rises 20:15:18 0° 13° (NNE) 2,555 7.6 -20.3°
Reaches altitude 10° 20:17:23 10° 13° (NNE) 1,670 6.6 -20.6°
Maximum altitude 20:20:58 88° 281° (WNW) 489 3.4 -21.0°
Enters shadow 20:21:13 76° 201° (SSW) 501 3.4 -21.1°
